TimeEST,TemperatureF,Dew PointF,Humidity,Sea Level PressureIn,VisibilityMPH,Wind Direction,Wind SpeedMPH,Gust SpeedMPH,PrecipitationIn,Events,Conditions,WindDirDegrees,DateUTC
12:51 AM,39.0,34.0,82,30.46,10.0,NNE,9.2,-,N/A,,Overcast,30,2012-12-01 05:51:00
1:51 AM,39.0,34.0,82,30.45,10.0,NE,16.1,-,N/A,,Overcast,50,2012-12-01 06:51:00
2:51 AM,39.0,33.1,79,30.46,10.0,NE,17.3,-,N/A,,Overcast,40,2012-12-01 07:51:00
3:51 AM,39.0,33.1,79,30.45,10.0,NE,17.3,-,N/A,,Overcast,50,2012-12-01 08:51:00
4:51 AM,37.9,32.0,79,30.47,10.0,ENE,18.4,25.3,N/A,,Overcast,60,2012-12-01 09:51:00
5:51 AM,37.9,33.1,83,30.48,10.0,ENE,18.4,-,N/A,,Overcast,60,2012-12-01 10:51:00
6:26 AM,39.2,33.8,81,30.48,10.0,NE,16.1,-,N/A,,Overcast,50,2012-12-01 11:26:00
6:51 AM,39.0,34.0,82,30.49,10.0,ENE,16.1,-,N/A,,Overcast,60,2012-12-01 11:51:00
7:51 AM,37.9,33.1,83,30.50,10.0,NE,16.1,-,N/A,,Overcast,50,2012-12-01 12:51:00
8:51 AM,37.9,33.1,83,30.51,10.0,NE,17.3,25.3,N/A,,Overcast,50,2012-12-01 13:51:00
9:48 AM,37.4,32.0,81,30.53,10.0,NE,17.3,-,N/A,,Overcast,50,2012-12-01 14:48:00
9:51 AM,37.9,33.1,83,30.53,10.0,NE,18.4,-,N/A,,Overcast,50,2012-12-01 14:51:00
10:51 AM,39.0,33.1,79,30.52,10.0,NE,17.3,-,N/A,,Overcast,50,2012-12-01 15:51:00
11:51 AM,39.9,35.1,83,30.48,10.0,NE,16.1,-,N/A,,Overcast,50,2012-12-01 16:51:00
12:51 PM,39.9,36.0,86,30.47,10.0,NE,17.3,-,N/A,,Overcast,40,2012-12-01 17:51:00
1:51 PM,39.9,36.0,86,30.45,10.0,NE,17.3,-,N/A,,Overcast,50,2012-12-01 18:51:00
2:22 PM,39.2,35.6,87,30.45,10.0,ENE,15.0,-,N/A,,Overcast,60,2012-12-01 19:22:00
2:51 PM,39.9,37.0,89,30.45,10.0,NE,15.0,-,N/A,,Overcast,50,2012-12-01 19:51:00
3:51 PM,39.9,37.9,93,30.45,10.0,NE,13.8,-,N/A,,Overcast,50,2012-12-01 20:51:00
4:51 PM,39.9,37.9,93,30.47,10.0,NE,13.8,-,N/A,,Overcast,40,2012-12-01 21:51:00
5:51 PM,41.0,39.0,93,30.48,9.0,NE,12.7,-,N/A,,Overcast,50,2012-12-01 22:51:00
6:51 PM,41.0,39.0,93,30.48,8.0,ENE,15.0,-,N/A,,Overcast,60,2012-12-01 23:51:00
7:51 PM,41.0,39.9,96,30.46,7.0,NE,12.7,-,N/A,,Overcast,50,2012-12-02 00:51:00
8:51 PM,41.0,39.9,96,30.45,6.0,NE,12.7,-,N/A,,Overcast,50,2012-12-02 01:51:00
9:51 PM,41.0,39.9,96,30.44,5.0,NE,12.7,-,N/A,,Overcast,40,2012-12-02 02:51:00
10:51 PM,41.0,39.0,93,30.43,5.0,NNE,6.9,-,N/A,,Overcast,30,2012-12-02 03:51:00
11:51 PM,41.0,39.9,96,30.43,4.0,NNE,6.9,-,N/A,,Overcast,30,2012-12-02 04:51:00